| time (UTC) | temp F | wind direction | speed knots | gust knots | rain 1hr in | rain 24hr in | rain mn in | humidity % | barometer mb |
| 20260509223050 | 68 | 134 | 0.9 | 3.5 | 0.00 | 0.16 | 0.16 | 87 | 1009.3 |
| 20260509221549 | 68 | 143 | 0.9 | 3.5 | 0.00 | 0.16 | 0.16 | 87 | 1009.4 |
| 20260509220052 | 68 | 104 | 1.7 | 5.2 | 0.00 | 0.16 | 0.16 | 86 | 1009.6 |
| 20260509214610 | 68 | 181 | 0.9 | 7.0 | 0.00 | 0.16 | 0.16 | 85 | 1009.7 |
| 20260509213051 | 69 | 184 | 1.7 | 4.3 | 0.00 | 0.16 | 0.16 | 84 | 1009.6 |
| 20260509211550 | 69 | 86 | 1.7 | 5.2 | 0.00 | 0.16 | 0.16 | 84 | 1009.5 |
| 20260509204556 | 69 | 82 | 2.6 | 7.8 | 0.00 | 0.16 | 0.16 | 83 | 1009.8 |
| 20260509203107 | 70 | 149 | 2.6 | 12.2 | 0.00 | 0.16 | 0.16 | 83 | 1010.1 |
| 20260509201553 | 69 | 84 | 2.6 | 7.8 | 0.00 | 0.16 | 0.16 | 85 | 1010.1 |
| 20260509200055 | 68 | 0 | 0.9 | 8.7 | 0.00 | 0.16 | 0.16 | 87 | 1010.6 |
| 20260509194601 | 68 | 79 | 2.6 | 6.1 | 0.00 | 0.16 | 0.16 | 84 | 1010.6 |
| 20260509193106 | 67 | 183 | 2.6 | 7.8 | 0.00 | 0.16 | 0.16 | 86 | 1010.8 |
| 20260509191607 | 66 | 138 | 1.7 | 5.2 | 0.00 | 0.16 | 0.16 | 86 | 1010.9 |
| 20260509190057 | 66 | 121 | 0.9 | 5.2 | 0.00 | 0.16 | 0.16 | 89 | 1011.0 |
| 20260509184601 | 67 | 328 | 0.9 | 5.2 | 0.00 | 0.16 | 0.16 | 93 | 1011.1 |
| 20260509183057 | 66 | 83 | 1.7 | 4.3 | 0.00 | 0.16 | 0.16 | 94 | 1011.5 |
| 20260509181552 | 65 | 99 | 0.9 | 5.2 | 0.05 | 0.16 | 0.16 | 97 | 1011.6 |
| 20260509180049 | 63 | 67 | 0.9 | 2.6 | 0.06 | 0.16 | 0.16 | 98 | 1011.9 |
| 20260509174619 | 62 | 0 | 0.0 | 0.0 | 0.11 | 0.16 | 0.16 | 97 | 1012.0 |
| 20260509173056 | 61 | 0 | 0.0 | 0.0 | 0.12 | 0.16 | 0.16 | 96 | 1012.1 |
| 20260509171551 | 61 | 0 | 0.0 | 0.9 | 0.09 | 0.11 | 0.11 | 96 | 1012.2 |
| 20260509170051 | 61 | 0 | 0.0 | 3.5 | 0.10 | 0.10 | 0.10 | 96 | 1012.3 |
| 20260509164553 | 61 | 0 | 0.0 | 0.9 | 0.05 | 0.05 | 0.05 | 96 | 1012.2 |
| 20260509163055 | 61 | 150 | 0.0 | 2.6 | 0.04 | 0.04 | 0.04 | 94 | 1012.5 |
| 20260509161555 | 61 | 115 | 0.0 | 3.5 | 0.02 | 0.02 | 0.02 | 93 | 1012.8 |
| 20260509160057 | 63 | 103 | 1.7 | 6.1 | 0.00 | 0.00 | 0.00 | 89 | 1012.9 |
| 20260509154555 | 64 | 131 | 1.7 | 7.0 | 0.00 | 0.00 | 0.00 | 86 | 1013.2 |
| 20260509153100 | 66 | 167 | 1.7 | 4.3 | 0.00 | 0.00 | 0.00 | 85 | 1013.5 |
| 20260509151551 | 66 | 128 | 2.6 | 6.1 | 0.00 | 0.00 | 0.00 | 82 | 1013.7 |
| 20260509150052 | 66 | 152 | 1.7 | 5.2 | 0.00 | 0.00 | 0.00 | 82 | 1013.6 |
| 20260509144553 | 67 | 117 | 0.9 | 7.8 | 0.00 | 0.00 | 0.00 | 79 | 1013.7 |
| 20260509143055 | 68 | 73 | 1.7 | 9.6 | 0.00 | 0.00 | 0.00 | 80 | 1013.7 |
| 20260509141559 | 67 | 113 | 0.9 | 4.3 | 0.00 | 0.00 | 0.00 | 83 | 1013.8 |
| 20260509134554 | 65 | 141 | 1.7 | 4.3 | 0.00 | 0.00 | 0.00 | 85 | 1013.6 |
| 20260509133054 | 64 | 0 | 1.7 | 7.0 | 0.00 | 0.00 | 0.00 | 86 | 1013.6 |
| 20260509131555 | 63 | 144 | 0.9 | 3.5 | 0.00 | 0.00 | 0.00 | 88 | 1013.8 |
| 20260509130107 | 62 | 130 | 1.7 | 5.2 | 0.00 | 0.00 | 0.00 | 88 | 1013.9 |
| 20260509124555 | 61 | 143 | 0.9 | 3.5 | 0.00 | 0.00 | 0.00 | 89 | 1014.0 |
| 20260509123053 | 61 | 131 | 0.9 | 5.2 | 0.00 | 0.00 | 0.00 | 89 | 1013.8 |
| 20260509121616 | 60 | 128 | 0.9 | 3.5 | 0.00 | 0.00 | 0.00 | 90 | 1013.9 |
| 20260509120056 | 60 | 127 | 0.9 | 2.6 | 0.00 | 0.00 | 0.00 | 91 | 1013.9 |
| 20260509114600 | 59 | 139 | 0.0 | 3.5 | 0.00 | 0.00 | 0.00 | 90 | 1014.2 |
| 20260509113058 | 59 | 150 | 0.0 | 6.1 | 0.00 | 0.00 | 0.00 | 90 | 1014.2 |
| 20260509111559 | 58 | 161 | 0.9 | 4.3 | 0.00 | 0.00 | 0.00 | 91 | 1014.3 |
| 20260509110100 | 57 | 139 | 0.0 | 2.6 | 0.00 | 0.00 | 0.00 | 92 | 1014.2 |
| 20260509104555 | 57 | 129 | 0.9 | 2.6 | 0.00 | 0.00 | 0.00 | 92 | 1014.2 |
| 20260509103101 | 57 | 143 | 0.9 | 1.7 | 0.00 | 0.00 | 0.00 | 92 | 1014.2 |
| 20260509101601 | 57 | 115 | 0.0 | 1.7 | 0.00 | 0.00 | 0.00 | 91 | 1014.2 |
| 20260509100051 | 57 | 121 | 0.0 | 4.3 | 0.00 | 0.00 | 0.00 | 91 | 1014.1 |
| 20260509094604 | 57 | 139 | 0.9 | 6.1 | 0.00 | 0.00 | 0.00 | 92 | 1014.1 |
| 20260509093054 | 57 | 107 | 0.0 | 1.7 | 0.00 | 0.00 | 0.00 | 92 | 1014.0 |
| 20260509091551 | 57 | 0 | 0.9 | 3.5 | 0.00 | 0.00 | 0.00 | 91 | 1013.8 |
| 20260509090059 | 57 | 0 | 0.0 | 1.7 | 0.00 | 0.00 | 0.00 | 90 | 1013.9 |
| 20260509084559 | 57 | 99 | 0.9 | 3.5 | 0.00 | 0.00 | 0.00 | 90 | 1014.0 |
| 20260509083101 | 56 | 145 | 0.0 | 4.3 | 0.00 | 0.00 | 0.00 | 89 | 1014.0 |
| 20260509081550 | 56 | 111 | 0.9 | 2.6 | 0.00 | 0.00 | 0.00 | 89 | 1014.0 |
| 20260509080056 | 56 | 85 | 0.0 | 4.3 | 0.00 | 0.00 | 0.00 | 88 | 1014.0 |
| 20260509074553 | 56 | 106 | 0.0 | 2.6 | 0.00 | 0.00 | 0.00 | 88 | 1014.3 |
| 20260509073052 | 56 | 123 | 0.9 | 2.6 | 0.00 | 0.00 | 0.00 | 86 | 1014.5 |
| 20260509071552 | 56 | 0 | 0.0 | 2.6 | 0.00 | 0.00 | 0.00 | 86 | 1014.3 |
| 20260509070057 | 56 | 101 | 0.9 | 1.7 | 0.00 | 0.00 | 0.00 | 85 | 1014.3 |
| 20260509064554 | 56 | 153 | 0.0 | 2.6 | 0.00 | 0.00 | 0.00 | 84 | 1014.2 |
| 20260509063100 | 56 | 132 | 0.0 | 3.5 | 0.00 | 0.00 | 0.00 | 82 | 1014.3 |
| 20260509061555 | 56 | 143 | 0.0 | 3.5 | 0.00 | 0.00 | 0.00 | 81 | 1014.3 |
| 20260509060107 | 56 | 0 | 0.9 | 4.3 | 0.00 | 0.00 | 0.00 | 79 | 1014.5 |
| 20260509054551 | 56 | 110 | 0.0 | 5.2 | 0.00 | 0.00 | 0.00 | 77 | 1014.4 |
| 20260509053112 | 56 | 131 | 0.9 | 2.6 | 0.00 | 0.00 | 0.00 | 76 | 1014.4 |
| 20260509051554 | 56 | 168 | 0.9 | 4.3 | 0.00 | 0.00 | 0.00 | 76 | 1014.5 |
| 20260509050049 | 56 | 98 | 0.9 | 4.3 | 0.00 | 0.00 | 0.00 | 76 | 1014.7 |
| 20260509044626 | 56 | 167 | 0.9 | 2.6 | 0.00 | 0.00 | 0.00 | 77 | 1014.6 |
| 20260509043138 | 56 | 0 | 0.9 | 6.1 | 0.00 | 0.00 | 0.00 | 74 | 1014.7 |
| 20260509041550 | 56 | 98 | 0.9 | 7.0 | 0.00 | 0.00 | 0.00 | 77 | 1014.9 |
| 20260509040052 | 56 | 162 | 0.9 | 4.3 | 0.00 | 0.00 | 0.00 | 79 | 1015.1 |
| 20260509034557 | 56 | 151 | 0.0 | 6.1 | 0.00 | 0.00 | 0.00 | 79 | 1015.0 |
| 20260509033055 | 56 | 123 | 0.9 | 6.1 | 0.00 | 0.00 | 0.00 | 78 | 1015.1 |
| 20260509031602 | 56 | 134 | 0.9 | 2.6 | 0.00 | 0.00 | 0.00 | 76 | 1015.2 |
| 20260509030110 | 56 | 131 | 0.9 | 3.5 | 0.00 | 0.00 | 0.00 | 73 | 1015.0 |
| 20260509024558 | 56 | 96 | 0.0 | 1.7 | 0.00 | 0.00 | 0.00 | 74 | 1015.0 |
| 20260509023057 | 56 | 115 | 0.9 | 1.7 | 0.00 | 0.00 | 0.00 | 78 | 1015.0 |
| 20260509021555 | 55 | 160 | 0.0 | 2.6 | 0.00 | 0.00 | 0.00 | 78 | 1015.1 |
| 20260509014555 | 56 | 0 | 0.0 | 5.2 | 0.00 | 0.00 | 0.00 | 76 | 1015.0 |
| 20260509013059 | 55 | 117 | 0.0 | 2.6 | 0.00 | 0.00 | 0.00 | 76 | 1014.8 |
| 20260509011557 | 56 | 0 | 0.9 | 2.6 | 0.00 | 0.00 | 0.00 | 75 | 1014.9 |
| 20260509010054 | 56 | 127 | 0.0 | 3.5 | 0.00 | 0.00 | 0.00 | 76 | 1014.9 |
| 20260509004603 | 56 | 141 | 0.9 | 2.6 | 0.00 | 0.00 | 0.00 | 78 | 1014.7 |
| 20260509003058 | 56 | 159 | 0.9 | 3.5 | 0.00 | 0.00 | 0.00 | 77 | 1014.5 |
| 20260509001552 | 56 | 140 | 0.9 | 1.7 | 0.00 | 0.00 | 0.00 | 75 | 1014.5 |
| 20260508234557 | 58 | 82 | 0.9 | 4.3 | 0.00 | 0.02 | 0.00 | 71 | 1014.3 |
| 20260508233057 | 58 | 134 | 1.7 | 4.3 | 0.00 | 0.02 | 0.00 | 71 | 1014.2 |
| 20260508231555 | 60 | 134 | 0.9 | 3.5 | 0.00 | 0.02 | 0.00 | 71 | 1014.2 |
| 20260508230054 | 61 | 157 | 0.9 | 3.5 | 0.00 | 0.02 | 0.00 | 68 | 1014.1 |
| 20260508224635 | 61 | 117 | 0.9 | 6.1 | 0.00 | 0.09 | 0.00 | 66 | 1014.1 |